Find OneWeb SL0436

NORAD ID: 51633 Int'l Des: 2022-012 Owner: ONEWEBN Country: UK Constellation: oneweb operational
LEOCIRCULARPOLARONEWEB_TYPE

現在のビュー

3D地球を読み込み中...

About OneWeb SL0436

OneWeb SL0436 (NORAD 51633) is a oneweb constellation satellite launched Feb 10, 2022 by ONEWEBN of UK. It operates in LEO, CIRCULAR, POLAR, ONEWEB_TYPE orbit with a mass of 148.00 kg.

OneWeb SL0436について

説明を読み込み中...

次回通過

Passes for default location (London). Set your location on the main map for personalized predictions.

高度履歴

Loading altitude history...

軌道要素

1 51633U 22012M 26169.95874615 .00000034 00000-0 54609-4 0 9999
2 51633 87.9140 5.4934 0001662 91.5643 268.5679 13.17649259213913
Epoch: Jun 18, 2026 • Age: 8 hours

現在のステータス

高度 1197.7 km
速度 7.25 km/s
衛星直下点 -6.09°S, 169.51°E
打ち上げ日 Feb 10, 2022
運用期間 4.3 years
タイプ internet

技術仕様

分類 Payload
質量 148.00 kg
乾燥質量 140.00 kg
総質量 148.00 kg
長さ 1.30 m
直径 1.00 m
スパン 5.00 m
形状 Trapezoid+2 pan
製造者 ONEWUS
バスタイプ ARROW
フェーズステータス In Orbit
所有者/国 ONEWEBN/UK

Most Searched